Precipitable_Water
1.79 2.02 2.08 2.03 1.97 1.94 1.86 1.74 1.58 1.58 1.58 1.59 1.58 1.54 1.55 1.62 1.71 1.79 1.82 1.79 1.69 1.57 1.62 1.70 1.71 1.68 1.74 1.77 1.86 1.86 1.83 1.82 1.83 1.92 1.98 2.03 2.08 2.04 2.09 2.09 2.05 2.01 1.89
1.82 1.97 2.02 1.94 1.85 1.88 1.80 1.75 1.77 1.72 1.71 1.71 1.72 1.73 1.74 1.73 1.74 1.77 1.82 1.81 1.78 1.69 1.68 1.67 1.63 1.64 1.65 1.69 1.82 1.80 1.79 1.85 1.83 1.84 1.89 1.93 1.99 2.07 2.01 2.04 2.03 2.04 1.99
1.74 1.86 1.84 1.89 1.87 1.75 1.73 1.73 1.69 1.66 1.64 1.61 1.68 1.61 1.66 1.66 1.65 1.70 1.71 1.75 1.77 1.79 1.81 1.83 1.77 1.62 1.56 1.63 1.76 1.77 1.66 1.74 1.83 1.88 1.81 1.75 1.85 1.95 2.04 1.95 1.98 2.03 2.04
1.68 1.77 1.80 1.81 1.75 1.72 1.64 1.66 1.64 1.68 1.57 1.60 1.62 1.67 1.76 1.78 1.73 1.73 1.77 1.76 1.74 1.72 1.76 1.74 1.73 1.80 1.75 1.59 1.57 1.71 1.63 1.63 1.82 1.88 1.80 1.76 1.77 1.84 1.92 1.87 1.86 1.82 1.98
1.63 1.67 1.68 1.67 1.63 1.63 1.59 1.52 1.59 1.56 1.63 1.68 1.67 1.66 1.66 1.63 1.61 1.66 1.71 1.72 1.74 1.73 1.66 1.61 1.59 1.59 1.61 1.71 1.70 1.61 1.62 1.65 1.72 1.77 1.67 1.66 1.67 1.76 1.86 1.83 1.84 1.84 1.89
1.59 1.58 1.65 1.64 1.46 1.47 1.57 1.53 1.53 1.55 1.54 1.57 1.57 1.60 1.55 1.52 1.53 1.57 1.58 1.63 1.67 1.69 1.71 1.72 1.68 1.64 1.56 1.57 1.60 1.64 1.65 1.64 1.60 1.61 1.68 1.63 1.50 1.54 1.74 1.81 1.81 1.82 1.86
1.57 1.57 1.57 1.47 1.41 1.46 1.43 1.45 1.45 1.39 1.35 1.35 1.38 1.45 1.46 1.45 1.51 1.54 1.55 1.62 1.67 1.70 1.71 1.70 1.74 1.77 1.80 1.76 1.67 1.63 1.57 1.52 1.51 1.48 1.58 1.60 1.73 1.61 1.61 1.67 1.77 1.82 1.85
1.44 1.47 1.40 1.42 1.48 1.57 1.54 1.52 1.45 1.46 1.49 1.47 1.47 1.49 1.52 1.54 1.55 1.55 1.59 1.68 1.72 1.71 1.70 1.75 1.80 1.84 1.87 1.85 1.83 1.78 1.68 1.60 1.54 1.63 1.67 1.76 1.85 1.82 1.79 1.75 1.60 1.62 1.74
1.38 1.34 1.43 1.53 1.57 1.58 1.55 1.56 1.60 1.60 1.58 1.51 1.47 1.48 1.54 1.57 1.59 1.58 1.61 1.65 1.69 1.65 1.69 1.74 1.72 1.71 1.73 1.75 1.81 1.84 1.86 1.79 1.68 1.70 1.79 1.84 1.87 1.93 1.90 1.87 1.82 1.85 1.88
1.27 1.35 1.44 1.51 1.58 1.57 1.62 1.64 1.62 1.61 1.59 1.55 1.64 1.65 1.66 1.72 1.71 1.72 1.78 1.76 1.74 1.82 1.82 1.81 1.80 1.72 1.67 1.68 1.77 1.81 1.92 1.92 1.82 1.82 1.91 1.92 1.92 1.96 1.92 1.91 1.88 1.86 1.83
1.21 1.33 1.43 1.44 1.54 1.59 1.59 1.64 1.67 1.69 1.74 1.87 1.94 2.03 1.88 1.84 1.78 1.80 1.89 1.92 1.91 1.91 1.90 1.86 1.82 1.83 1.82 1.79 1.77 1.84 1.92 1.91 1.84 1.72 1.79 1.90 1.96 1.98 2.01 1.86 1.72 1.73 1.75
1.07 1.23 1.36 1.45 1.54 1.56 1.59 1.64 1.73 1.78 1.87 2.04 2.00 1.92 1.99 1.98 1.97 1.88 1.85 1.95 1.86 1.86 1.92 1.90 1.91 1.85 1.86 1.83 1.81 1.86 1.88 1.83 1.78 1.82 1.81 1.80 1.76 1.79 1.77 1.76 1.74 1.69 1.49
1.08 1.21 1.37 1.48 1.56 1.56 1.60 1.66 1.68 1.79 1.83 1.88 1.94 1.91 1.89 1.90 1.93 1.90 1.73 1.78 1.80 1.73 1.74 1.75 1.73 1.80 1.86 1.85 1.84 1.86 1.86 1.85 1.95 1.98 1.93 1.89 1.90 1.89 1.92 1.81 1.83 1.74 1.68
1.09 1.25 1.41 1.51 1.54 1.60 1.68 1.70 1.66 1.70 1.83 1.89 1.96 1.97 1.98 1.96 1.90 1.82 1.73 1.55 1.59 1.78 1.77 1.75 1.80 1.87 1.86 1.84 1.86 1.85 1.88 1.89 1.84 1.88 1.99 2.02 2.03 1.99 1.98 1.92 1.88 1.82 1.77
1.15 1.30 1.42 1.52 1.55 1.61 1.71 1.72 1.70 1.69 1.77 1.88 1.80 1.89 2.00 1.87 1.73 1.72 1.67 1.66 1.68 1.67 1.69 1.76 1.79 1.81 1.82 1.85 1.85 1.86 1.89 1.93 1.91 1.93 2.05 2.15 2.13 2.04 2.00 1.94 1.88 1.73 1.65
1.19 1.32 1.49 1.55 1.60 1.65 1.68 1.69 1.71 1.76 1.76 1.80 1.79 1.85 1.99 1.87 1.70 1.67 1.69 1.76 1.78 1.79 1.74 1.81 1.80 1.79 1.79 1.86 1.79 1.82 1.90 1.95 1.95 1.96 2.03 2.12 2.16 2.09 2.01 1.87 1.68 1.67 1.67
1.27 1.35 1.39 1.51 1.61 1.64 1.74 1.69 1.72 1.77 1.72 1.71 1.69 1.79 1.89 1.96 1.78 1.76 1.83 1.86 1.75 1.79 1.79 1.82 1.70 1.67 1.70 1.64 1.60 1.64 1.68 1.81 1.93 2.01 2.04 2.13 2.13 2.09 2.02 1.79 1.73 1.68 1.61
1.28 1.26 1.35 1.44 1.55 1.65 1.78 1.75 1.72 1.71 1.72 1.64 1.69 1.72 1.81 1.93 1.92 1.85 1.81 1.79 1.71 1.70 1.58 1.60 1.61 1.51 1.49 1.45 1.41 1.34 1.33 1.50 1.88 2.05 2.19 1.99 2.05 2.00 2.00 1.80 1.80 1.77 1.61
1.28 1.28 1.31 1.41 1.46 1.62 1.74 1.76 1.73 1.75 1.67 1.65 1.61 1.69 1.76 1.80 1.82 1.74 1.78 1.77 1.82 1.70 1.44 1.48 1.46 1.48 1.33 1.30 1.20 1.18 1.28 1.43 1.69 1.85 1.96 2.02 1.99 2.00 1.94 1.90 1.86 1.78 1.61
1.29 1.31 1.32 1.38 1.46 1.54 1.63 1.71 1.75 1.68 1.71 1.54 1.57 1.58 1.61 1.68 1.74 1.77 1.84 1.84 1.85 1.77 1.58 1.36 1.34 1.39 1.29 1.23 1.10 1.11 1.23 1.55 1.74 1.78 1.88 1.93 1.92 1.88 1.88 1.91 1.87 1.84 1.62
1.31 1.30 1.29 1.33 1.39 1.44 1.52 1.59 1.59 1.49 1.60 1.46 1.48 1.54 1.53 1.57 1.69 1.71 1.71 1.70 1.67 1.66 1.70 1.62 1.51 1.36 1.34 1.28 1.05 0.98 1.16 1.51 1.74 1.89 1.96 1.96 1.95 1.85 1.82 1.93 1.90 1.82 1.66
1.21 1.27 1.31 1.32 1.31 1.47 1.53 1.62 1.64 1.59 1.62 1.50 1.51 1.50 1.55 1.60 1.62 1.58 1.52 1.40 1.46 1.63 1.45 1.49 1.51 1.42 1.34 1.31 1.07 0.97 0.83 1.10 1.55 1.78 1.85 1.90 1.89 1.89 1.85 1.89 1.86 1.81 1.70
1.16 1.22 1.26 1.32 1.27 1.41 1.52 1.59 1.63 1.64 1.58 1.41 1.45 1.48 1.53 1.56 1.56 1.60 1.56 1.52 1.54 1.59 1.54 1.60 1.57 1.48 1.22 1.29 1.29 1.13 0.93 0.90 1.16 1.47 1.78 1.87 1.87 1.88 1.86 1.85 1.81 1.81 1.74
1.12 1.20 1.24 1.26 1.27 1.34 1.40 1.47 1.47 1.38 1.34 1.44 1.47 1.52 1.53 1.62 1.55 1.62 1.64 1.62 1.61 1.65 1.66 1.60 1.63 1.59 1.43 1.24 1.42 1.47 1.36 1.29 1.18 1.34 1.84 1.81 1.85 1.81 1.83 1.77 1.79 1.79 1.76
1.06 1.08 1.16 1.22 1.28 1.34 1.36 1.42 1.40 1.36 1.40 1.44 1.44 1.39 1.47 1.61 1.62 1.56 1.55 1.55 1.60 1.66 1.64 1.63 1.63 1.60 1.53 1.42 1.33 1.43 1.44 1.53 1.63 1.56 1.49 1.62 1.71 1.81 1.84 1.75 1.74 1.74 1.70
1.04 1.02 1.10 1.14 1.15 1.29 1.35 1.36 1.35 1.30 1.31 1.34 1.38 1.32 1.34 1.44 1.50 1.56 1.56 1.57 1.56 1.56 1.66 1.79 1.81 1.71 1.62 1.50 1.45 1.54 1.60 1.68 1.70 1.70 1.67 1.70 1.58 1.65 1.76 1.72 1.66 1.59 1.50
Wind_Speed
15 15 14 13 14 14 13 14 14 14 13 13 13 13 13 13 13 13 13 13 12 12 11 12 12 12 11 11 10 9 8 8 8 8 8 8 7 6 5 6 5 6 7
16 15 15 14 14 14 13 13 13 13 12 12 12 11 11 12 12 12 11 11 11 11 11 11 11 11 10 8 8 8 9 8 7 7 7 7 6 6 6 5 4 4 6
16 16 15 14 14 13 13 13 13 12 12 12 11 11 11 11 11 11 11 10 9 9 10 10 9 8 8 7 7 7 7 6 6 4 4 5 6 5 4 5 5 4 5
16 15 14 14 13 13 13 13 13 12 12 12 12 11 11 11 11 10 10 10 10 9 9 9 8 8 7 7 6 6 6 5 5 5 5 5 4 5 5 4 4 3 5
15 15 14 13 13 13 13 13 12 12 11 11 11 11 10 10 10 10 10 9 9 9 9 8 7 7 7 6 6 6 5 5 5 4 4 3 3 4 4 4 4 5 6
15 15 14 14 14 13 12 12 11 11 10 10 10 10 9 9 9 9 9 9 9 9 8 8 7 7 6 6 5 4 4 3 3 4 4 3 3 2 2 2 3 4 5
15 15 15 14 13 12 11 11 10 10 9 9 9 9 9 9 9 9 9 9 8 8 8 8 7 6 6 5 4 3 3 2 2 1 1 1 1 1 1 2 2 3 4
15 15 14 13 12 12 11 10 10 10 9 9 8 8 8 8 8 8 8 8 8 8 7 7 7 6 5 4 4 3 2 2 1 1 1 1 1 1 1 2 3 4 5
15 14 13 13 12 11 11 10 10 9 9 8 8 8 8 7 7 7 7 8 7 7 7 6 5 5 4 3 3 3 2 1 1 0 1 1 2 3 3 3 3 5 6
14 13 13 12 12 12 11 11 10 9 9 9 8 8 7 7 7 7 7 7 7 6 5 5 5 4 4 3 3 2 2 1 1 2 3 3 4 5 4 5 5 6 6
14 13 13 12 12 12 11 11 10 10 9 8 7 6 6 6 6 6 6 5 5 5 5 5 4 4 4 3 3 3 2 2 3 3 3 4 6 6 6 5 6 7 8
13 13 12 12 12 11 11 10 9 8 7 6 6 6 5 5 5 5 5 5 5 5 4 4 4 4 4 3 3 3 3 3 3 4 4 5 6 6 6 6 7 8 9
14 13 13 12 11 11 10 9 7 6 6 5 5 5 6 5 6 6 6 5 4 4 4 4 4 4 3 3 4 4 4 4 5 6 7 7 7 7 7 8 9 9 10
13 13 13 12 11 10 9 8 7 6 5 5 5 4 4 5 5 4 4 4 4 4 3 3 3 4 4 4 5 5 6 6 7 8 8 9 9 8 8 10 10 11 12
13 13 12 11 10 9 7 6 6 5 5 5 5 5 4 4 5 4 5 4 3 3 3 3 4 4 5 6 7 8 9 9 10 10 10 11 11 11 11 11 11 12 13
13 13 11 10 9 7 6 5 5 5 4 4 4 4 5 5 5 5 4 3 4 3 3 3 4 5 6 8 10 11 12 13 13 12 12 12 12 12 11 12 12 13 14
13 12 11 9 8 7 6 5 4 4 4 4 4 4 3 4 4 4 4 2 3 4 5 4 4 6 8 9 12 14 15 16 15 14 14 13 13 12 12 12 13 13 14
12 12 10 9 8 7 5 5 4 2 3 3 2 3 2 2 2 2 2 3 3 5 5 5 6 8 9 11 14 16 16 15 14 14 14 13 13 13 12 12 13 14 15
12 12 11 10 8 7 5 4 3 1 1 2 2 1 1 1 1 1 2 2 3 5 6 6 7 9 10 13 16 17 16 14 14 15 13 13 12 12 12 13 14 15 16
12 12 11 10 9 8 6 4 3 2 1 1 0 1 1 2 2 1 3 3 4 5 7 8 8 11 12 14 15 16 15 13 14 13 11 13 12 13 14 14 14 16 16
13 13 12 12 10 9 7 5 4 3 1 1 1 1 1 1 2 3 4 5 6 7 9 9 11 13 13 15 16 16 15 14 15 13 14 14 14 15 14 15 16 16 17
14 14 13 12 11 10 9 7 5 4 2 2 1 1 1 2 2 3 4 6 6 7 10 11 13 14 15 16 16 16 15 15 15 15 17 14 14 15 14 15 17 17 17
15 15 14 13 13 12 10 8 7 5 3 3 3 3 3 4 4 5 6 7 8 9 11 12 14 16 16 17 16 16 16 16 17 17 19 14 14 16 15 16 18 17 18
16 15 14 14 14 13 11 10 9 7 5 4 4 4 5 6 7 7 8 9 11 12 14 15 16 17 17 17 17 17 17 17 16 18 20 13 16 16 17 17 18 17 18
15 15 16 15 15 14 13 12 11 9 8 6 6 7 7 8 8 9 11 12 14 15 15 16 16 18 18 19 18 19 18 17 17 16 15 16 16 18 17 19 18 18 18
14 15 15 15 16 15 14 13 13 12 10 9 9 9 9 9 10 11 13 14 16 17 16 17 18 19 20 21 21 21 19 19 18 17 17 18 17 19 19 19 18 19 20
Wind_Direction
135 132 130 124 120 116 114 110 110 108 105 101 98 97 94 92 92 95 98 100 101 100 105 111 111 111 111 111 110 106 102 103 101 98 95 91 94 102 113 127 134 134 137
135 133 129 125 121 118 115 112 110 108 105 102 101 98 94 93 93 95 97 99 102 104 107 115 113 113 112 110 110 112 104 102 104 101 98 89 83 97 103 117 133 147 158
135 132 130 127 123 119 114 111 110 107 105 103 99 97 94 93 93 93 93 95 101 106 108 114 114 117 117 116 110 115 109 98 93 99 100 88 76 78 103 110 109 116 132
134 133 132 130 126 120 115 113 109 106 104 101 98 96 95 95 94 93 93 93 97 105 111 114 114 113 114 116 109 119 112 102 91 87 98 92 81 84 92 104 110 109 137
134 133 134 131 127 122 117 114 110 108 105 102 98 96 95 94 94 94 94 93 96 101 106 109 110 111 111 112 112 115 114 101 92 98 99 90 93 93 92 101 111 107 128
134 133 131 130 126 122 118 116 113 111 107 104 101 97 95 94 96 96 94 93 95 97 101 104 105 107 107 109 111 116 119 113 104 94 98 91 96 101 104 115 126 127 143
135 133 131 128 126 122 120 118 115 113 110 105 102 98 96 94 96 95 94 94 96 95 96 96 100 100 100 102 102 105 104 101 98 103 106 73 71 77 160 197 199 202 204
134 132 130 128 126 124 123 120 117 114 110 106 101 98 96 95 96 96 97 96 95 95 94 94 93 93 92 87 89 90 89 78 79 89 91 337 320 310 249 256 240 239 231
134 131 129 127 126 125 123 121 118 114 110 106 102 97 94 93 94 94 95 96 95 94 94 91 87 83 79 73 71 64 55 40 27 290 327 322 305 291 274 268 261 253 249
134 132 129 128 126 124 122 119 117 113 109 105 102 95 94 93 92 94 96 96 95 90 88 84 76 69 64 61 52 42 23 4 325 308 299 294 293 292 275 268 273 262 256
138 136 132 129 127 124 121 117 116 113 109 104 96 96 91 87 95 94 95 96 90 86 82 77 73 61 56 51 38 28 11 349 335 323 313 297 296 295 271 273 278 272 264
142 140 136 133 128 125 121 118 115 111 106 99 90 90 101 88 101 94 94 96 89 81 79 70 63 53 46 35 14 348 340 337 329 322 318 309 309 296 272 273 281 277 272
146 143 141 137 132 127 123 118 114 109 106 102 93 96 93 92 97 94 93 93 91 83 72 54 42 33 21 9 357 349 339 324 308 307 304 306 301 293 282 276 282 281 278
152 149 145 141 136 131 125 117 111 108 105 100 95 98 97 95 96 98 93 93 87 79 55 40 27 19 13 1 348 339 330 321 310 307 297 292 296 291 285 280 281 283 282
156 154 151 148 143 136 130 121 110 107 103 103 94 95 88 99 99 98 90 90 71 51 37 27 17 9 2 349 338 328 320 313 309 298 304 293 286 284 285 283 280 284 284
161 161 156 156 153 147 140 131 116 105 106 104 105 107 89 99 110 85 83 78 55 45 21 14 12 1 349 340 334 325 315 309 301 295 299 296 285 287 280 283 285 287 286
166 166 164 163 162 158 147 141 129 112 97 101 110 120 92 103 100 87 77 54 40 30 9 346 345 347 341 333 330 326 320 311 302 294 293 297 287 281 279 285 285 286 290
175 178 175 172 166 161 150 145 144 126 105 108 112 117 128 135 118 79 52 52 37 4 357 348 342 337 336 335 332 329 327 318 313 298 291 295 288 279 278 283 286 288 291
189 187 186 184 182 180 176 172 174 165 139 123 110 125 150 176 169 84 44 5 351 358 356 346 337 334 333 335 335 335 333 326 324 320 291 297 288 284 281 282 287 289 291
196 196 195 194 196 195 194 190 186 174 178 202 249 261 251 226 230 292 315 322 337 342 346 344 336 332 329 332 335 341 339 335 332 327 309 298 290 292 286 286 291 292 289
202 202 202 201 205 200 199 199 201 209 229 225 271 290 245 244 260 296 302 312 313 316 326 329 330 331 328 332 332 333 340 333 333 328 319 306 292 299 291 286 296 293 291
206 206 206 208 208 207 208 211 208 214 238 237 251 273 260 281 287 303 313 319 314 318 324 324 329 330 328 330 331 332 331 331 332 334 327 308 305 306 295 292 299 294 290
206 207 210 213 212 211 212 216 219 227 246 256 254 262 283 285 292 297 305 314 319 319 322 324 326 328 328 329 329 328 328 327 327 324 330 314 315 313 304 302 301 301 295
210 211 213 215 212 213 216 220 224 231 247 257 256 268 285 288 286 291 301 306 311 312 314 318 321 324 325 325 325 324 322 323 325 328 331 316 320 322 314 310 307 303 299
212 213 217 219 218 219 221 226 230 235 247 259 266 271 291 294 281 290 299 303 307 310 309 312 318 320 320 320 318 316 317 319 321 326 330 326 323 330 324 322 314 311 306
215 218 219 220 223 224 228 231 234 239 246 256 265 273 282 291 291 294 299 305 308 306 304 307 312 316 317 318 315 313 311 314 315 318 321 322 326 331 328 326 322 318 313